"Pseudo-MPEC" for P11Uv1M

Created 2024 May 17 0:22:10 UT using Find_Orb

Click here for an explanation of pseudo-MPECs

 
 Astrometry: 
     P11Uv1M* C2024 05 080%Astrometry/@ukIUaddredacted;D5-2Eqw*%vMbh$Q\Z4F(DKF51
     P11Uv1M  C2024 05 08kd!\4VDR@BBN.gy,r$\yAJclickWL,8`-@+21I3n7D8jZ2liSEO%F51
     P11Uv1M  C2024 05 08$1XE56quNW(HoYf\here'Ws!E.3kwA7Fo7%:o1!CB^k_S$%i,6pYF51
     P11Uv1M 7C2024 05 098og%:F+DG5:;u%qrHU=abA@Q'V!anJNtemtpkAK'!?vPEmHGeba(Z84
     P11Uv1M 7C2024 05 09phfor^K)-v2';YUeJw6+RV()UuQVRqpXF@^l*kBpL7O(yYm+1I3:Z84
     P11Uv1M 7C2024 05 09$bF4:=R1uRQOjwY\sOb0Xj3X#c5)P)alOu-F'ruY#KIU^_Nh_FFLZ84
     P11Uv1M 3C2024 05 09$JRA95KBvLK%rRQn1Ts4/WN^EPwlvIJFUl9jq\f5bkn4CE(TT!B=T14
     P11Uv1M 3C2024 05 093pUXFR$w!OwVu7lM@\51PITP,b*a+!t!W-/1Se:PuiAv6nr]N-(,T14
     P11Uv1M 3C2024 05 09mE6TP8)+I6aX!:wpEs_@oO5e!r9$Yv0LA![KmdVTrN/2L%1y?RnnT14
     P11Uv1M 6C2024 05 14AYpmMNM#8SxmhI`,%V:w_Jd1)Od'XKkuprIwO;PM/svI%@SeDqPMZ84
     P11Uv1M 6C2024 05 14Gn*(U+KPUDSRsn\GWUw'5SaU-SX0ZY$db*sGUIexplanationSV.Z84
     P11Uv1M KC2024 05 14.44448016 51 23.598+11 26 32.71   ~5EBM 21.84GVNEOCPV06
     P11Uv1M KC2024 05 14.44927716 51 23.533+11 26 33.07   ~5EBM 22.02GVNEOCPV06
     P11Uv1M KC2024 05 14.45407416 51 23.454+11 26 33.54   ~5EBM 22.05GVNEOCPV06
     P11Uv1M KC2024 05 14.45884616 51 23.389+11 26 33.86   ~5EBM 21.70GVNEOCPV06
     P11Uv1M KC2024 05 15.32574616 51 12.186+11 27 43.16   ~5F8q 21.88GVNEOCPV06
     P11Uv1M KC2024 05 15.33594216 51 12.017+11 27 43.96   ~5F8q 22.47GVNEOCPV06
     P11Uv1M KC2024 05 15.34624216 51 11.884+11 27 44.86   ~5F8q 22.05GVNEOCPV06
     P11Uv1M KC2024 05 15.35672016 51 11.747+11 27 45.83   ~5F8q 22.35GVNEOCPV06

Station data:
(F51) Pan-STARRS 1, Haleakala  (N20.707234 W156.255910)  US/Hawaii.
   Observers J. Bulger, T. Lowe, A. Schultz, M. Willman. Measurers K.
   Chambers, S. Chastel, T. de Boer, L. Denneau, J. Fairlamb, H. Flewelling,
   M. Huber, C.-C. Lin, E. Magnier, Y. Ramanjooloo, R. Wainscoat, R. Weryk.
   1.8-m Ritchey-Chrétien + CCD.
(T14) Mauna Kea-UH/Tholen NEO Follow-Up (CFHT)  (N19.825252 W155.468876)
   US/Hawaii.  Observer R. Weryk. 3.6-m Canada-France-Hawaii Telescope.
(V06) Catalina Sky Survey-Kuiper  (N32.416871 W110.732550)  US/Arizona.
   Observers T. A. Pruyne, B. M. Africano, E. J. Christensen, G. A. Farneth,
   D. C. Fuls, A. R. Gibbs, A. D. Grauer, H. Gröller, J. A. Johnson, R. A.
   Kowalski, S. M. Larson, G. J. Leonard, D. Rankin, R. L. Seaman, F. C.
   Shelly, K. W. Wierzchoś. 1.55-m reflector + CCD.
(Z84) Calar Alto-Schmidt  (N37.224046 W2.548210)  Spain.  Observers R.
   Kresken, F. Ocana. Measurers E. Schwab, D. Koschny, M. Micheli. 0.8-m f/3
   Schmidt + CCD.

Orbital elements:  P11Uv1M
   Perihelion 2027 Oct 9.97713 +/- 861 TT = 23:27:03 (JD 2461688.47713)
Epoch 2024 May 15.0 TT = JDT 2460445.5   Ne: 0.7210              AutoNEOCP
M 352.55938869 +/- 7                (J2000 ecliptic)
n   0.00598612 +/- 0.00294          Peri.  137.64193 +/- 31
a  30.0404012 +/- 9.83              Node   157.99522 +/- 1.8
e   0.6768589 +/- 0.138             Incl.   30.90393 +/- 0.10
P 164.65                   H 11.59  G  0.15   U  9.0  SR
q 9.70728658 +/- 0.658    Q 50.3735158 +/- 17
From 19 observations 2024 May 8-15; mean residual 0".20
Residuals in arcseconds: 
240508 F51  .12+  .21-    240509 T14  .07-  .05+    240514 V06  .29-  .05-    
240508 F51  .13+  .03-    240509 T14  .04-  .04+    240515 V06  .62+  .28-    
240508 F51  .20+  .21-    240514 Z84  .04+  .19+    240515 V06  .14+  .28-    
240509 Z84  .02-  .08-    240514 Z84  .32-  .32+    240515 V06  .22+  .20-    
240509 Z84  .17-  .01+    240514 V06  .01-  .04-    240515 V06  .27+  .05-    
240509 Z84  .39+  .17-    240514 V06  .03-  .06-    
240509 T14  .03-  .05+    240514 V06  .26-  .02+    

Ephemerides (geocentric):
Date (UTC) HH   RA             Dec           delta  r     elong  mag " sig PA
---- --------  ------------   ------------  ------ ------ -----  --- --------
2024 05 17 00  16 50 50.000   +11 29 51.99  10.338 11.172 144.1 22.2 1.01 144
2024 05 17 01  16 50 49.444   +11 29 55.08  10.338 11.172 144.1 22.2 1.04 144
2024 05 17 02  16 50 48.888   +11 29 58.17  10.337 11.172 144.1 22.2 1.06 144
2024 05 17 03  16 50 48.332   +11 30 01.25  10.337 11.172 144.1 22.2 1.08 144
2024 05 17 04  16 50 47.775   +11 30 04.32  10.337 11.172 144.1 22.2 1.11 144
2024 05 17 05  16 50 47.219   +11 30 07.39  10.337 11.172 144.1 22.2 1.13 144
2024 05 17 06  16 50 46.662   +11 30 10.46  10.336 11.172 144.1 22.2 1.15 144
2024 05 17 07  16 50 46.105   +11 30 13.52  10.336 11.172 144.2 22.2 1.18 144
2024 05 17 08  16 50 45.547   +11 30 16.57  10.336 11.172 144.2 22.2 1.20 144
2024 05 17 09  16 50 44.990   +11 30 19.62  10.336 11.172 144.2 22.2 1.22 144
2024 05 17 10  16 50 44.432   +11 30 22.67  10.336 11.172 144.2 22.2 1.25 144
2024 05 17 11  16 50 43.874   +11 30 25.71  10.335 11.171 144.2 22.2 1.27 144
2024 05 17 12  16 50 43.316   +11 30 28.74  10.335 11.171 144.2 22.2 1.30 144
2024 05 17 13  16 50 42.757   +11 30 31.78  10.335 11.171 144.2 22.2 1.32 144
2024 05 17 14  16 50 42.199   +11 30 34.80  10.335 11.171 144.3 22.2 1.35 144
2024 05 17 15  16 50 41.640   +11 30 37.82  10.334 11.171 144.3 22.2 1.37 144
2024 05 17 16  16 50 41.081   +11 30 40.84  10.334 11.171 144.3 22.2 1.40 144
2024 05 17 17  16 50 40.521   +11 30 43.85  10.334 11.171 144.3 22.2 1.42 144
2024 05 17 18  16 50 39.962   +11 30 46.85  10.334 11.171 144.3 22.2 1.45 144
2024 05 17 19  16 50 39.402   +11 30 49.85  10.334 11.171 144.3 22.2 1.47 144
2024 05 17 20  16 50 38.842   +11 30 52.85  10.333 11.171 144.3 22.2 1.50 144
2024 05 17 21  16 50 38.282   +11 30 55.84  10.333 11.171 144.3 22.2 1.53 144
2024 05 17 22  16 50 37.721   +11 30 58.82  10.333 11.170 144.4 22.2 1.55 144
2024 05 17 23  16 50 37.160   +11 31 01.80  10.333 11.170 144.4 22.2 1.58 144
2024 05 18 00  16 50 36.600   +11 31 04.78  10.333 11.170 144.4 22.2 1.61 144
2024 05 18 01  16 50 36.038   +11 31 07.75  10.332 11.170 144.4 22.2 1.63 144
2024 05 18 02  16 50 35.477   +11 31 10.71  10.332 11.170 144.4 22.2 1.66 145
2024 05 18 03  16 50 34.915   +11 31 13.67  10.332 11.170 144.4 22.2 1.69 145
2024 05 18 04  16 50 34.354   +11 31 16.63  10.332 11.170 144.4 22.2 1.71 145
2024 05 18 05  16 50 33.792   +11 31 19.58  10.331 11.170 144.4 22.2 1.74 145
2024 05 18 06  16 50 33.230   +11 31 22.52  10.331 11.170 144.5 22.2 1.77 145
2024 05 18 07  16 50 32.667   +11 31 25.46  10.331 11.170 144.5 22.2 1.80 145
2024 05 18 08  16 50 32.104   +11 31 28.40  10.331 11.170 144.5 22.2 1.83 145
2024 05 18 09  16 50 31.542   +11 31 31.33  10.331 11.170 144.5 22.2 1.85 145
2024 05 18 10  16 50 30.979   +11 31 34.25  10.330 11.169 144.5 22.2 1.88 145
2024 05 18 11  16 50 30.415   +11 31 37.17  10.330 11.169 144.5 22.2 1.91 145
2024 05 18 12  16 50 29.852   +11 31 40.09  10.330 11.169 144.5 22.2 1.94 145
2024 05 18 13  16 50 29.288   +11 31 43.00  10.330 11.169 144.5 22.2 1.97 145
2024 05 18 14  16 50 28.724   +11 31 45.90  10.330 11.169 144.6 22.2 2.00 145
2024 05 18 15  16 50 28.160   +11 31 48.80  10.329 11.169 144.6 22.2 2.03 145
2024 05 18 16  16 50 27.596   +11 31 51.70  10.329 11.169 144.6 22.2 2.06 145
2024 05 18 17  16 50 27.031   +11 31 54.59  10.329 11.169 144.6 22.2 2.09 145
2024 05 18 18  16 50 26.466   +11 31 57.47  10.329 11.169 144.6 22.2 2.12 145
2024 05 18 19  16 50 25.901   +11 32 00.35  10.329 11.169 144.6 22.2 2.15 145
2024 05 18 20  16 50 25.336   +11 32 03.22  10.328 11.169 144.6 22.2 2.18 145
2024 05 18 21  16 50 24.771   +11 32 06.09  10.328 11.168 144.6 22.2 2.21 145
2024 05 18 22  16 50 24.205   +11 32 08.96  10.328 11.168 144.6 22.2 2.24 145
2024 05 18 23  16 50 23.640   +11 32 11.82  10.328 11.168 144.7 22.2 2.27 145